Date,TemperatureHighF,TemperatureAvgF,TemperatureLowF,DewpointHighF,DewpointAvgF,DewpointLowF,HumidityHigh,HumidityAvg,HumidityLow,PressureMaxIn,PressureMinIn,WindSpeedMaxMPH,WindSpeedAvgMPH,GustSpeedMaxMPH,PrecipitationSumIn
2013-1-1,38.7,32.2,19.2,29.1,20.8,7.7,78,63,48,29.51,29.28,28,13,72,0.00
2013-1-2,32.0,21.5,11.7,18.6,10.1,1.6,75,61,52,29.70,29.47,25,11,50,0.00
2013-1-3,28.9,16.9,5.9,12.2,1.1,-4.9,64,51,29,29.73,29.58,22,10,38,0.00
2013-1-4,41.0,31.0,21.2,26.6,21.9,11.8,85,69,53,29.57,29.39,35,13,61,0.00
2013-1-5,45.3,35.9,29.7,27.4,23.5,19.4,79,62,39,29.85,29.42,27,9,49,0.00
2013-1-6,46.0,36.2,28.9,32.3,29.0,22.3,99,76,57,29.82,29.52,32,8,47,0.00
2013-1-7,43.9,36.0,30.4,33.8,29.0,19.7,99,78,42,29.99,29.54,22,8,38,0.00
2013-1-8,48.9,39.3,30.2,33.5,31.6,29.4,99,75,52,29.96,29.83,33,13,68,0.00
2013-1-9,45.1,39.3,30.0,39.9,33.5,29.8,99,80,62,29.98,29.58,27,8,52,0.00
2013-1-10,51.4,43.2,34.9,32.0,27.8,25.8,70,55,41,30.13,29.61,28,13,88,0.01
2013-1-11,43.5,37.1,30.6,38.6,31.9,25.9,99,82,63,30.11,29.81,14,4,28,0.12
2013-1-12,45.9,42.4,38.1,45.6,42.1,37.9,99,99,99,29.81,29.70,17,4,28,2.24
2013-1-13,53.2,48.0,43.0,53.0,47.7,42.7,99,99,99,29.73,29.57,25,8,35,0.00
2013-1-14,64.9,53.5,43.0,57.8,47.0,30.6,99,80,49,29.83,29.43,32,13,50,0.00
2013-1-15,43.0,39.4,35.6,31.0,28.4,25.4,73,65,58,29.90,29.80,14,6,27,0.00
2013-1-16,36.0,33.2,30.2,34.3,30.9,24.1,99,92,64,29.83,29.40,12,4,20,0.17
2013-1-17,44.4,36.4,29.8,35.5,30.5,16.1,99,80,56,29.67,29.41,30,11,46,0.12
2013-1-18,29.3,23.8,18.0,14.3,1.9,-5.0,53,38,27,30.04,29.64,24,12,57,0.00
2013-1-19,50.7,38.5,23.4,36.3,25.2,7.0,82,60,43,29.98,29.47,36,17,71,0.00
2013-1-20,55.2,43.0,29.3,37.9,29.1,11.1,82,59,39,29.50,29.10,47,19,87,0.01
2013-1-21,30.0,25.3,22.3,23.3,11.7,5.2,99,59,37,29.69,29.38,27,10,49,0.00
2013-1-22,26.8,21.5,14.2,23.3,10.7,-0.7,99,66,37,29.67,29.32,25,11,54,0.00
2013-1-23,18.7,12.2,7.0,0.8,-7.2,-11.1,64,42,28,29.73,29.64,30,15,52,0.00
2013-1-24,21.9,11.9,2.8,-5.9,-9.5,-12.8,52,38,23,29.80,29.63,36,14,76,0.00
2013-1-25,24.8,16.8,8.6,15.9,-5.9,-12.3,94,38,24,29.89,29.65,22,11,52,0.00
2013-1-26,27.7,18.6,12.4,15.9,4.9,-7.0,97,59,28,29.81,29.58,22,10,47,0.00
2013-1-27,33.4,22.4,12.9,4.7,2.0,-3.6,65,43,27,30.05,29.81,24,11,50,0.00
2013-1-28,31.6,25.9,20.5,29.6,13.5,1.9,99,64,30,30.03,29.59,14,6,33,0.00
2013-1-29,35.8,31.3,25.9,35.5,31.0,25.7,99,99,94,29.78,29.59,9,4,17,0.12
2013-1-30,62.8,50.9,35.1,62.5,50.7,34.8,99,99,99,29.73,29.06,33,14,72,0.06
2013-1-31,61.3,49.2,32.0,61.1,40.5,16.5,99,74,42,29.17,28.54,50,27,112,0.63
2013-2-1,36.3,29.4,23.0,18.8,10.5,4.4,59,45,33,29.65,29.16,36,18,61,0.00
2013-2-2,31.5,25.3,18.5,13.6,8.0,3.4,56,48,37,29.83,29.63,24,12,41,0.00
2013-2-3,26.8,24.7,22.5,26.6,23.1,14.1,99,94,60,29.63,29.31,17,7,33,0.00
2013-2-4,31.6,25.7,21.6,24.2,14.0,7.5,99,63,40,29.52,29.28,33,15,66,0.00
2013-2-5,29.3,25.2,21.7,26.6,15.3,9.7,99,67,50,29.61,29.51,17,6,39,0.00
2013-2-6,41.0,31.7,25.7,29.9,22.5,7.1,99,72,42,29.86,29.50,20,9,60,0.04
2013-2-7,33.3,25.7,18.7,21.5,5.5,0.6,76,42,29,30.12,29.88,24,8,38,0.00
2013-2-8,33.1,29.8,17.8,32.5,28.2,17.6,99,94,79,30.07,29.18,46,22,88,0.01
2013-2-9,29.1,18.1,14.5,28.4,15.7,7.7,99,90,73,29.76,29.13,46,11,82,0.00
2013-2-10,42.3,27.3,14.0,16.4,10.5,5.1,73,51,26,29.98,29.77,17,6,38,0.00
2013-2-11,45.5,35.7,25.3,45.2,31.6,12.7,99,86,54,29.93,29.18,19,5,33,0.20
2013-2-12,46.8,40.0,35.2,39.8,32.9,27.2,99,76,57,29.45,29.18,35,14,64,0.00
2013-2-13,45.9,37.4,30.9,33.9,29.2,26.0,94,73,54,29.44,29.25,19,8,35,0.00
2013-2-14,48.4,38.8,32.0,33.3,27.2,24.1,94,64,42,29.58,29.29,19,8,28,0.00
2013-2-15,54.1,41.6,32.4,40.8,36.4,26.9,99,83,58,29.58,29.48,22,9,44,0.00
2013-2-16,39.4,35.7,30.9,38.2,31.1,20.7,99,85,61,29.53,29.28,22,8,38,0.02
2013-2-17,30.9,21.8,17.1,21.8,13.3,2.6,99,72,48,29.28,28.95,44,19,77,0.00
2013-2-18,33.6,23.8,14.4,5.5,3.4,0.7,58,42,24,29.73,29.24,39,19,79,0.00
2013-2-19,49.6,38.7,24.3,45.2,27.9,5.2,99,67,42,29.74,29.15,24,10,41,0.20
2013-2-20,43.7,33.5,26.6,43.1,23.3,13.2,99,68,43,29.36,29.11,44,18,64,0.01
2013-2-21,35.2,28.4,25.0,18.5,15.8,12.8,73,59,44,29.75,29.35,33,16,58,0.00
2013-2-22,41.4,33.0,25.2,28.4,24.6,18.3,86,72,52,29.97,29.75,20,9,38,0.00
2013-2-23,39.6,36.0,33.3,35.5,32.6,27.4,99,87,77,29.92,29.49,19,8,36,0.13
2013-2-24,38.1,34.7,30.7,37.9,34.4,30.5,99,99,95,29.50,29.26,25,9,50,0.21
2013-2-25,43.0,36.3,29.7,37.2,31.8,22.0,99,85,45,29.83,29.47,12,3,25,0.09
2013-2-26,45.1,38.8,31.8,42.0,34.4,30.6,99,85,61,29.92,29.74,20,8,38,0.00
2013-2-27,41.9,40.3,38.7,41.6,40.0,36.8,99,99,95,29.74,29.12,36,20,77,0.96
2013-2-28,50.0,40.1,34.3,40.9,37.3,34.1,99,90,59,29.22,29.09,12,5,24,0.00
2013-3-1,41.7,38.7,35.8,38.9,33.9,31.5,99,83,68,29.26,29.10,16,7,33,0.00
2013-3-2,45.5,38.7,33.3,34.0,31.2,28.5,86,74,60,29.25,29.19,16,7,30,0.00
2013-3-3,44.1,36.6,32.9,37.0,32.3,28.2,99,85,71,29.22,29.13,17,8,30,0.00
2013-3-4,41.9,35.1,30.6,32.8,27.9,25.2,99,76,55,29.30,29.15,27,14,57,0.00
2013-3-5,45.5,38.1,31.6,38.9,32.0,25.5,96,79,63,29.64,29.31,20,8,46,0.00
2013-3-6,40.3,37.6,35.1,39.1,36.6,33.4,99,96,77,29.69,29.62,44,26,79,0.09
2013-3-7,36.5,32.3,30.2,34.0,31.7,30.0,99,98,86,29.65,29.56,41,20,71,0.09
2013-3-8,42.1,33.7,28.9,33.6,28.5,23.2,99,84,49,29.72,29.51,39,14,77,0.07
2013-3-9,47.3,38.0,31.6,36.3,30.8,24.2,99,76,60,29.93,29.72,30,9,46,0.00
2013-3-10,45.9,36.4,29.5,37.0,34.0,29.2,99,92,70,30.00,29.90,17,6,28,0.00
2013-3-11,55.0,43.6,35.8,45.6,40.4,35.5,99,90,67,29.91,29.74,25,12,39,0.00
2013-3-12,57.4,50.9,42.3,56.0,50.5,42.0,99,99,95,29.74,29.30,28,12,54,0.27
2013-3-13,54.5,46.2,39.4,52.8,35.9,23.2,99,71,37,29.36,29.26,28,12,46,0.00
2013-3-14,38.8,32.7,23.0,27.5,17.6,8.0,71,54,42,29.41,29.28,32,14,57,0.00
2013-3-15,43.2,31.0,19.8,30.3,14.3,4.5,80,51,28,29.45,29.20,30,14,58,0.00
2013-3-16,44.8,35.6,29.1,29.9,17.8,11.5,80,50,28,29.44,29.24,19,7,36,0.00
2013-3-17,41.2,32.8,26.1,23.4,12.4,5.9,65,44,27,29.90,29.45,27,9,50,0.00
2013-3-18,40.1,29.6,19.2,28.9,12.2,0.6,99,50,30,30.04,29.84,19,8,35,0.00
2013-3-19,36.1,32.5,28.4,35.9,32.3,28.2,99,99,99,29.83,29.18,39,18,68,0.41
2013-3-20,41.2,33.1,25.5,27.6,24.7,22.2,99,73,49,29.40,29.27,33,14,63,0.01
2013-3-21,41.2,33.1,29.5,31.9,25.7,20.1,99,75,45,29.40,29.18,16,5,27,0.00
2013-3-22,43.5,35.1,28.8,31.2,23.8,20.0,99,65,40,29.32,29.18,27,11,46,0.00
2013-3-23,46.8,37.0,29.1,27.0,23.2,21.0,82,59,38,29.36,29.20,25,14,60,0.00
2013-3-24,51.6,40.6,32.4,35.7,27.6,22.6,87,61,41,29.39,29.30,32,10,47,0.00
2013-3-25,46.4,39.2,33.8,39.6,34.3,29.9,92,83,72,29.34,29.09,35,13,55,0.00
2013-3-26,53.2,42.8,34.0,35.7,28.8,23.5,99,61,34,29.35,29.10,25,10,41,0.02
2013-3-27,55.6,45.3,34.3,35.7,28.1,24.7,79,52,35,29.44,29.31,22,10,57,0.00
2013-3-28,48.4,42.9,37.4,39.1,37.1,33.6,99,81,59,29.59,29.44,19,8,35,0.01
2013-3-29,43.7,42.4,40.8,37.1,36.4,35.8,82,79,77,29.60,29.59,9,6,19,0.00
2013-3-30,61.7,49.6,39.4,37.0,30.9,19.3,84,53,23,29.67,29.57,25,7,33,0.00
2013-3-31,61.5,49.3,33.6,40.6,30.2,24.4,74,50,29,29.70,29.45,30,9,50,0.00
2013-4-1,41.0,37.5,34.2,18.1,15.0,11.8,47,40,33,29.52,29.39,64,39,64,0.00
2013-4-2,35.2,32.9,30.7,21.6,17.5,14.1,66,53,42,29.58,29.50,46,28,46,0.00
2013-4-3,48.6,41.0,34.5,17.4,15.1,12.8,49,35,26,29.73,29.51,54,35,54,0.00
2013-4-4,59.0,43.4,30.7,28.9,20.4,16.2,61,42,22,29.87,29.63,42,23,46,0.00
2013-4-5,68.2,50.5,39.2,34.4,31.1,26.0,80,50,27,29.63,29.19,44,22,52,0.00
2013-4-6,50.4,40.6,33.1,29.2,13.7,6.4,63,36,18,29.92,29.45,42,20,54,0.00
2013-4-7,49.8,40.3,33.1,45.8,26.6,16.3,95,59,38,29.92,29.58,42,13,55,0.00
2013-4-8,69.8,54.1,45.5,49.2,45.7,43.1,99,76,38,29.67,29.52,36,17,36,0.00
2013-4-9,75.0,59.5,48.0,58.7,51.7,47.8,99,79,47,29.62,29.43,46,19,57,0.08
2013-4-10,62.6,53.0,47.3,52.7,49.9,46.9,99,90,69,29.58,29.44,33,12,33,0.18
2013-4-11,52.5,47.4,44.1,50.6,44.9,39.4,99,91,69,29.71,29.40,28,13,35,0.05
2013-4-12,44.2,39.9,37.6,42.0,38.2,34.0,99,94,72,29.75,29.36,52,28,60,0.37
2013-4-13,54.7,43.1,35.6,46.1,40.7,35.4,99,92,63,29.50,29.34,42,15,52,0.04
2013-4-14,54.0,48.1,41.5,46.0,37.3,31.2,96,68,43,29.78,29.49,42,17,52,0.00
2013-4-15,54.7,46.4,35.6,45.0,38.0,32.3,91,73,52,29.98,29.79,36,14,39,0.00
2013-4-16,64.2,53.6,41.5,56.7,47.1,40.0,99,80,56,29.99,29.64,58,24,64,0.00
2013-4-17,70.0,60.8,52.2,58.1,43.8,33.9,99,58,31,29.91,29.62,39,20,54,0.00
2013-4-18,63.9,54.1,47.3,48.3,39.5,32.5,85,59,39,30.01,29.73,49,22,49,0.00
2013-4-19,76.5,64.0,52.9,69.5,62.2,49.3,99,94,74,29.73,29.23,77,28,83,0.00
2013-4-20,66.9,55.5,45.7,66.7,45.7,28.1,99,73,44,29.78,29.17,58,25,66,0.45
2013-4-21,55.6,44.5,36.0,35.3,27.2,22.4,73,51,32,30.26,29.79,41,19,55,0.00
2013-4-22,50.5,43.4,35.8,40.1,34.9,28.9,93,73,43,30.35,30.17,46,23,60,0.00
2013-4-23,42.6,41.6,40.3,42.4,40.5,35.6,99,96,81,30.17,29.70,41,25,49,0.06
2013-4-24,75.0,55.4,42.1,58.8,50.0,41.8,99,84,53,29.70,29.36,44,21,49,0.00
2013-4-25,69.8,57.7,49.6,56.2,43.0,30.8,99,64,27,29.83,29.41,39,18,57,0.02
2013-4-26,55.0,50.4,45.9,46.8,40.3,33.0,99,70,54,30.01,29.84,42,19,47,0.00
2013-4-27,63.3,53.9,41.2,50.7,42.0,34.6,99,68,39,30.00,29.87,32,13,33,0.00
2013-4-28,68.5,56.8,45.1,48.3,41.7,32.2,89,59,39,29.92,29.79,38,16,44,0.00
2013-4-29,71.1,59.1,50.2,52.4,45.8,24.4,98,66,26,29.86,29.76,35,17,38,0.00
2013-4-30,66.9,57.9,47.7,43.0,35.0,21.9,67,45,19,29.95,29.83,30,13,38,0.00
2013-5-1,66.6,57.9,44.1,43.7,39.6,26.9,88,53,26,30.06,29.94,33,11,36,0.00
2013-5-2,75.9,57.9,48.2,52.9,47.6,41.4,95,72,36,30.07,29.94,49,15,58,0.00
2013-5-3,59.0,50.5,43.9,49.7,46.0,43.6,99,85,70,30.10,29.96,39,18,49,0.00
2013-5-4,55.6,49.6,43.7,50.2,45.3,43.2,99,86,67,29.95,29.89,36,15,44,0.00
2013-5-5,56.8,49.4,38.7,48.3,44.4,38.4,99,84,63,29.91,29.84,32,14,38,0.00
2013-5-6,61.5,51.8,41.7,55.9,49.9,41.5,99,94,74,29.87,29.73,28,10,33,0.00
2013-5-7,75.9,64.3,49.1,65.6,58.4,48.8,99,82,61,29.76,29.66,36,13,41,0.00
2013-5-8,70.2,61.9,56.5,68.1,61.6,56.2,99,99,93,29.78,29.63,36,14,44,0.19
2013-5-9,72.9,59.6,56.1,68.5,59.2,55.9,99,99,83,29.63,29.46,24,8,27,0.48
2013-5-10,80.6,66.1,55.9,67.4,62.1,55.7,99,88,61,29.52,29.46,27,11,32,0.01
2013-5-11,73.2,65.2,59.9,69.2,64.0,59.6,99,96,82,29.49,29.26,44,19,52,0.04
2013-5-12,74.8,63.1,53.2,65.6,55.7,35.1,99,80,45,29.37,29.12,42,18,52,0.06
2013-5-13,62.1,52.7,46.2,40.7,34.5,30.7,67,51,35,29.60,29.37,91,22,91,0.00
2013-5-14,61.7,52.0,41.9,39.4,35.1,32.1,81,54,35,29.62,29.54,39,15,41,0.00
2013-5-15,67.6,55.2,42.4,58.6,44.3,35.4,99,70,38,29.63,29.25,60,18,60,0.00
2013-5-16,83.8,69.9,53.6,55.5,50.0,39.9,99,56,30,29.36,29.19,57,20,68,0.00
2013-5-17,71.2,61.7,54.0,51.6,47.4,41.5,80,60,39,29.79,29.37,41,18,44,0.00
2013-5-18,73.2,62.4,49.3,56.6,51.0,46.5,99,69,39,29.89,29.79,38,14,38,0.00
2013-5-19,73.8,58.7,53.6,59.5,55.3,52.4,99,90,59,29.93,29.80,35,14,42,0.08
2013-5-20,86.4,68.5,55.8,73.1,65.2,55.5,99,91,64,29.80,29.47,30,14,35,0.11
2013-5-21,75.4,61.8,51.8,70.6,60.9,51.5,99,97,84,29.58,29.44,41,15,52,0.02
2013-5-22,70.5,56.8,50.9,66.2,56.3,50.6,99,98,86,29.63,29.46,35,15,42,0.05
2013-5-23,77.9,65.2,54.1,76.9,64.8,53.9,99,99,92,29.49,29.37,47,16,57,0.06
2013-5-24,73.8,63.8,49.8,73.5,63.5,49.6,99,99,97,29.39,29.21,32,17,36,0.84
2013-5-25,53.1,48.5,42.4,52.8,48.3,42.2,99,99,99,29.38,29.26,36,20,55,0.24
2013-5-26,60.8,49.8,40.3,48.4,43.8,40.0,99,82,57,29.66,29.28,44,22,57,0.02
2013-5-27,75.2,60.9,44.8,49.7,45.2,41.2,99,62,32,29.74,29.64,39,16,55,0.00
2013-5-28,70.9,62.1,47.8,59.8,52.9,45.7,99,74,47,29.81,29.73,32,12,35,0.00
2013-5-29,78.4,63.9,59.0,72.6,63.4,58.7,99,98,82,29.76,29.56,22,11,30,0.67
2013-5-30,91.0,78.4,63.1,77.3,72.3,62.9,99,83,62,29.64,29.56,36,17,47,0.01
2013-5-31,96.1,84.5,69.4,78.4,74.5,69.2,99,75,50,29.65,29.49,38,17,46,0.00
2013-6-1,93.9,83.0,71.4,77.4,73.6,69.8,95,75,55,29.54,29.42,44,23,54,0.00
2013-6-2,90.9,79.6,70.0,78.1,74.3,69.7,99,85,58,29.45,29.29,68,28,76,0.01
2013-6-3,80.2,71.0,65.5,76.0,69.0,51.2,99,94,60,29.41,29.32,30,14,36,0.37
2013-6-4,74.7,65.2,54.3,53.2,50.3,46.2,77,60,46,29.65,29.39,35,18,47,0.00
2013-6-5,77.0,66.0,55.0,57.6,52.5,47.4,89,63,43,29.76,29.66,35,14,38,0.00
2013-6-6,77.2,66.7,58.1,62.1,55.8,48.7,92,69,48,29.76,29.67,35,15,39,0.00
2013-6-7,61.0,56.5,54.0,59.6,56.1,53.7,99,99,92,29.69,29.38,41,21,52,2.15
2013-6-8,81.1,64.8,51.6,72.1,62.3,51.4,99,92,74,29.57,29.16,36,18,46,0.45
2013-6-9,82.9,72.1,60.3,65.6,62.9,60.0,99,75,51,29.72,29.56,36,14,36,0.00
2013-6-10,70.3,64.4,57.7,64.8,62.0,57.5,99,92,74,29.77,29.59,30,14,36,0.39
2013-6-11,66.0,59.4,56.1,65.8,59.1,55.9,99,99,99,29.59,29.13,39,15,50,0.58
2013-6-12,72.5,63.8,56.5,63.9,60.3,56.2,99,89,69,29.37,29.12,50,16,61,0.02
2013-6-13,61.5,57.6,53.8,60.4,57.3,53.5,99,99,96,29.37,29.28,28,11,32,0.46
2013-6-14,78.3,67.3,53.1,63.8,59.9,52.8,99,79,57,29.32,29.24,27,14,28,0.70
2013-6-15,82.2,71.5,59.7,61.2,55.1,50.8,99,60,34,29.50,29.31,36,14,41,0.00
2013-6-16,77.7,69.9,59.5,70.6,59.9,52.3,99,72,51,29.50,29.27,44,17,44,0.00
2013-6-17,87.8,72.7,63.3,71.6,66.7,63.1,99,84,48,29.47,29.33,39,19,42,0.09
2013-6-18,76.8,65.4,59.7,70.3,63.6,59.5,99,94,75,29.51,29.44,30,11,38,0.38
2013-6-19,75.7,66.5,57.0,63.8,57.4,52.2,99,75,48,29.71,29.46,32,14,36,0.02
2013-6-20,81.0,70.2,55.2,64.1,59.4,55.0,99,71,47,29.82,29.71,35,13,39,0.00
2013-6-21,87.6,73.9,60.8,72.4,65.6,60.5,99,78,46,29.82,29.74,35,18,38,0.00
2013-6-22,86.9,75.3,66.2,70.2,66.4,62.4,90,75,54,29.79,29.67,38,21,44,0.00
2013-6-23,92.3,79.1,67.6,81.2,72.6,62.5,99,81,66,29.73,29.55,44,23,52,0.00
2013-6-24,96.1,82.7,72.0,81.5,77.2,71.7,99,85,60,29.59,29.43,46,22,46,0.14
2013-6-25,94.1,81.9,70.9,79.4,75.4,70.6,99,82,58,29.48,29.28,41,20,49,0.00
2013-6-26,87.1,77.3,68.5,79.0,75.0,68.3,99,93,73,29.42,29.27,25,12,32,0.02
2013-6-27,72.0,65.5,61.9,71.7,65.3,61.6,99,99,99,29.43,29.32,25,14,28,0.02
2013-6-28,85.3,72.2,61.5,81.6,71.5,61.3,99,97,83,29.33,29.04,54,21,60,0.26
2013-6-29,85.5,76.7,71.8,80.2,75.0,71.5,99,95,77,29.28,29.07,44,21,60,0.00
2013-6-30,87.3,78.0,70.9,81.9,76.6,70.6,99,95,79,29.50,29.28,39,19,47,0.00
2013-7-1,86.2,77.3,72.1,83.8,76.8,71.9,99,98,91,29.65,29.50,41,15,46,0.05
2013-7-2,87.4,75.2,63.7,83.3,74.8,63.4,99,98,85,29.78,29.64,33,15,36,0.00
2013-7-3,90.3,78.2,63.0,82.8,75.7,62.7,99,93,76,29.77,29.68,50,20,52,0.00
2013-7-4,94.6,84.5,74.3,84.4,80.6,74.1,99,89,70,29.77,29.65,42,21,49,0.00
2013-7-5,96.3,86.8,78.4,84.5,81.8,78.2,99,86,65,29.73,29.59,38,21,46,0.00
2013-7-6,94.5,85.4,77.5,84.1,79.9,72.2,99,84,64,29.63,29.52,38,19,41,0.00
2013-7-7,95.2,83.2,75.0,82.7,77.8,71.9,99,84,67,29.59,29.46,32,12,35,0.00
2013-7-8,86.0,78.4,68.7,84.1,77.7,68.5,99,98,89,29.62,29.46,30,14,35,0.01
2013-7-9,75.2,69.8,65.7,75.0,69.5,65.4,99,99,99,29.67,29.60,20,10,22,0.00
2013-7-10,88.0,75.4,66.9,83.7,74.8,66.7,99,98,86,29.64,29.34,38,16,52,0.01
2013-7-11,83.7,78.1,73.9,82.4,77.4,73.7,99,97,85,29.48,29.33,27,13,33,0.12
2013-7-12,77.9,72.3,67.8,74.1,68.5,63.7,99,88,68,29.76,29.47,38,20,42,0.00
2013-7-13,78.1,70.9,66.7,77.3,70.6,66.5,99,99,96,29.88,29.76,20,11,25,0.01
2013-7-14,95.7,81.4,70.7,84.2,77.7,70.4,99,90,59,29.86,29.76,35,9,36,0.01
2013-7-15,95.2,85.0,75.6,83.0,79.6,75.3,99,85,64,29.76,29.65,22,8,32,0.00
2013-7-16,96.4,84.1,74.1,80.7,77.4,73.9,99,81,55,29.73,29.66,30,11,30,0.00
2013-7-17,98.8,86.9,76.5,83.9,79.7,75.6,99,81,54,29.74,29.55,33,13,44,0.00
2013-7-18,93.4,83.9,78.6,85.1,80.2,75.8,99,89,66,29.58,29.50,35,17,36,0.00
2013-7-19,98.1,88.6,79.5,88.2,83.3,79.3,99,86,60,29.50,29.26,54,25,64,0.00
2013-7-20,95.2,87.0,80.8,86.9,82.4,74.6,99,87,64,29.35,29.19,44,22,64,0.00
2013-7-21,81.1,76.2,71.8,74.6,71.6,67.2,99,86,70,29.54,29.36,32,15,36,0.07
2013-7-22,80.4,74.4,70.2,78.5,73.6,69.9,99,97,85,29.58,29.45,28,14,35,0.00
2013-7-23,83.8,73.3,69.4,83.6,73.1,69.2,99,99,99,29.44,29.09,44,11,44,0.93
2013-7-24,87.8,79.2,69.1,82.4,74.1,63.0,99,85,66,29.51,29.13,38,15,38,0.00
2013-7-25,68.4,62.0,59.7,63.6,59.5,55.0,99,92,76,29.66,29.51,28,15,38,0.33
2013-7-26,71.4,65.3,60.4,71.2,65.0,60.2,99,99,99,29.62,29.48,36,12,36,0.76
2013-7-27,86.9,74.1,61.9,75.9,70.0,61.6,99,88,63,29.62,29.55,35,16,41,0.01
2013-7-28,81.9,72.7,68.4,79.9,72.3,68.1,99,98,92,29.59,29.52,25,11,28,0.01
2013-7-29,87.8,75.9,68.2,80.4,74.3,67.9,99,95,74,29.59,29.52,27,9,35,0.02
2013-7-30,88.5,75.4,64.8,69.4,66.8,64.1,99,77,48,29.65,29.58,28,14,35,0.00
2013-7-31,83.7,75.0,64.9,72.1,68.1,64.1,99,80,54,29.69,29.59,25,11,42,0.00
2013-8-1,84.6,74.0,66.4,73.9,69.8,66.1,99,88,64,29.61,29.44,44,15,47,0.00
2013-8-2,86.2,74.6,64.8,75.9,69.2,64.5,99,85,56,29.44,29.34,39,14,46,0.26
2013-8-3,81.5,73.6,67.6,73.2,69.8,67.4,99,89,67,29.42,29.33,39,20,46,0.00
2013-8-4,82.9,72.3,63.0,68.4,64.6,61.1,99,79,52,29.44,29.32,33,13,54,0.01
2013-8-5,79.0,68.3,58.8,60.6,56.0,51.1,99,68,39,29.60,29.44,33,16,44,0.00
2013-8-6,80.6,69.7,56.5,63.2,58.3,51.7,99,69,48,29.71,29.61,35,10,35,0.00
2013-8-7,84.0,72.1,61.3,69.0,62.5,55.9,99,74,47,29.75,29.66,35,15,42,0.00
2013-8-8,85.1,73.4,66.7,79.8,72.2,59.7,99,96,76,29.70,29.57,33,16,38,0.04
2013-8-9,77.4,74.0,72.1,77.1,73.7,71.9,99,99,99,29.59,29.30,55,17,55,0.92
2013-8-10,86.0,76.9,68.4,74.1,68.9,62.0,99,78,54,29.56,29.33,50,20,50,0.01
2013-8-11,84.2,72.3,60.1,67.3,62.4,57.5,99,74,52,29.64,29.55,28,13,33,0.00
2013-8-12,86.2,74.7,63.9,72.4,66.5,62.3,99,78,50,29.59,29.47,27,13,38,0.00
2013-8-13,81.5,72.5,68.9,74.2,71.1,68.6,99,96,72,29.48,29.24,20,10,30,0.00
2013-8-14,77.9,69.9,63.5,68.6,62.2,57.9,99,78,57,29.52,29.21,46,22,50,0.00
2013-8-15,81.0,69.1,57.7,61.2,59.1,56.2,99,73,48,29.67,29.52,28,14,36,0.00
2013-8-16,82.9,70.9,59.0,66.1,61.9,58.7,99,76,49,29.75,29.66,32,15,38,0.00
2013-8-17,81.1,71.5,61.2,67.5,64.8,60.9,99,81,57,29.84,29.75,25,12,28,0.00
2013-8-18,84.2,73.4,65.1,70.6,66.4,63.5,99,80,57,29.83,29.64,28,10,28,0.00
2013-8-19,84.0,74.1,62.2,71.1,67.3,62.0,99,81,58,29.64,29.50,28,15,33,0.00
2013-8-20,90.1,79.1,67.5,72.8,70.0,67.2,99,76,50,29.65,29.53,27,10,30,0.00
2013-8-21,91.9,79.9,67.5,75.5,71.9,67.2,99,79,56,29.70,29.58,27,12,35,0.00
2013-8-22,88.3,77.8,69.4,80.9,74.9,69.2,99,91,67,29.59,29.38,39,20,49,0.00
2013-8-23,82.8,74.2,67.5,73.3,67.5,57.8,99,81,59,29.67,29.37,33,15,42,0.00
2013-8-24,78.1,68.6,57.9,59.1,54.8,49.3,94,63,42,29.89,29.68,30,14,36,0.00
2013-8-25,86.2,72.9,57.7,63.9,60.1,53.7,99,67,42,29.93,29.75,28,13,38,0.00
2013-8-26,83.3,73.8,67.3,75.1,69.7,63.9,99,87,68,29.75,29.43,38,20,50,0.00
2013-8-27,81.5,74.1,69.6,78.3,73.1,69.4,99,97,82,29.46,29.39,27,12,32,0.01
2013-8-28,81.3,71.6,63.7,75.9,70.2,63.4,99,95,80,29.54,29.41,33,11,33,0.00
2013-8-29,67.5,64.9,62.2,67.2,64.6,62.0,99,99,99,29.63,29.51,35,16,41,0.00
2013-8-30,86.4,72.6,62.8,76.6,70.1,62.5,99,92,70,29.58,29.37,35,15,35,0.00
2013-8-31,82.4,75.9,70.3,82.2,75.7,70.1,99,99,99,29.39,29.33,35,16,36,0.00
2013-9-1,74.7,74.5,74.3,74.4,74.2,74.1,99,99,99,29.37,29.36,22,20,24,0.00
2013-9-2,84.2,77.8,72.5,83.5,77.5,72.2,99,99,94,29.37,29.26,30,15,39,0.04
2013-9-3,84.4,75.6,68.2,79.2,74.3,67.2,99,96,78,29.36,29.25,35,14,35,0.00
2013-9-4,83.7,72.5,61.3,68.4,64.6,61.1,99,78,53,29.47,29.35,39,17,42,0.00
2013-9-5,69.3,65.4,56.5,68.6,64.0,53.3,99,95,82,29.70,29.42,28,11,32,0.07
2013-9-6,73.4,61.8,49.1,52.3,49.8,46.4,99,68,41,29.80,29.65,27,13,33,0.00
2013-9-7,81.3,67.0,54.1,64.1,56.9,50.4,92,72,48,29.65,29.42,36,19,39,0.00
2013-9-8,77.2,67.5,56.3,70.2,59.1,46.8,99,77,46,29.65,29.29,42,20,54,0.00
2013-9-9,71.1,60.9,48.9,57.5,50.8,46.4,93,71,48,29.80,29.65,38,14,38,0.00
2013-9-10,77.5,68.6,59.4,77.3,68.1,57.1,99,98,91,29.72,29.58,42,17,50,0.07
2013-9-11,97.9,82.8,70.2,86.7,79.0,69.9,99,90,59,29.62,29.48,38,19,44,0.00
2013-9-12,90.0,79.3,68.2,84.4,77.4,67.9,99,94,75,29.53,29.23,57,19,68,0.47
2013-9-13,82.8,70.5,61.0,77.1,69.4,60.7,99,97,76,29.31,29.10,33,11,35,0.13
2013-9-14,68.4,62.6,57.0,62.3,59.8,56.8,99,91,77,29.61,29.31,32,14,32,0.00
2013-9-15,75.0,62.9,51.6,59.8,55.9,51.4,99,80,54,29.71,29.60,33,13,33,0.00
2013-9-16,70.5,60.5,50.5,61.6,56.7,44.5,99,88,68,29.80,29.57,36,16,44,0.00
2013-9-17,69.6,54.9,42.6,50.0,44.8,40.3,99,71,48,29.99,29.81,33,14,42,0.00
2013-9-18,77.7,62.3,47.3,56.9,51.7,47.0,99,72,40,29.89,29.70,30,13,33,0.00
2013-9-19,82.9,66.3,52.2,63.6,59.0,51.9,99,80,51,29.70,29.58,19,10,25,0.00
2013-9-20,80.8,67.1,54.9,67.2,62.5,54.6,99,87,61,29.64,29.55,22,10,24,0.00
2013-9-21,78.4,66.1,58.8,71.0,64.1,58.6,99,94,73,29.59,29.38,47,18,54,0.00
2013-9-22,74.7,65.5,54.5,65.1,58.0,53.4,99,78,60,29.38,29.21,36,19,49,0.00
2013-9-23,66.2,55.8,48.0,52.5,48.3,45.1,97,77,58,29.56,29.37,36,18,41,0.00
2013-9-24,71.1,56.1,44.8,53.2,48.1,44.5,99,77,51,29.55,29.37,41,17,41,0.00
2013-9-25,70.0,60.8,50.4,56.4,54.3,50.1,99,80,62,29.54,29.44,30,13,32,0.00
2013-9-26,67.8,60.3,54.5,58.0,55.4,51.7,98,85,63,29.67,29.53,28,11,33,0.00
2013-9-27,69.3,60.8,55.2,59.6,57.3,54.6,99,89,67,29.82,29.68,28,11,39,0.00
2013-9-28,74.5,61.3,51.1,65.5,58.4,50.8,99,91,68,29.89,29.80,27,9,32,0.00
2013-9-29,67.6,57.5,49.5,62.6,54.9,49.2,99,92,64,29.83,29.67,25,8,28,0.01
2013-9-30,70.5,57.2,49.5,61.1,54.7,49.2,99,92,64,29.69,29.52,22,9,28,0.00
2013-10-1,82.2,64.8,50.0,62.7,57.7,49.7,99,81,49,29.52,29.40,28,8,30,0.00
2013-10-2,82.9,69.8,58.5,70.0,65.0,58.2,99,86,65,29.50,29.37,42,18,49,0.00
2013-10-3,82.0,68.7,58.8,65.1,59.5,54.2,99,76,44,29.64,29.50,28,11,28,0.00
2013-10-4,71.4,62.9,56.1,65.8,60.1,55.8,99,91,77,29.63,29.58,17,6,17,0.02
2013-10-5,73.0,64.1,60.4,65.6,62.2,60.2,99,94,74,29.69,29.60,20,8,25,0.00
2013-10-6,62.2,58.0,55.2,62.0,57.7,55.0,99,99,99,29.78,29.67,38,14,38,0.35
2013-10-7,79.5,68.3,58.5,77.9,68.0,58.2,99,99,93,29.67,29.37,68,20,79,0.01
2013-10-8,70.2,60.7,52.3,62.0,51.5,45.0,98,74,47,29.92,29.45,30,16,39,0.00
2013-10-9,62.8,54.8,46.4,53.4,50.0,45.0,99,85,62,30.03,29.92,38,14,41,0.00
2013-10-10,63.9,54.1,44.8,59.3,53.1,44.5,99,96,85,29.93,29.74,22,9,30,0.00
2013-10-11,72.9,59.7,50.7,63.9,55.5,50.5,99,87,54,29.73,29.65,27,9,28,0.00
2013-10-12,60.8,56.2,51.6,60.5,56.0,51.4,99,99,99,29.95,29.70,41,16,50,0.00
2013-10-13,61.9,54.6,46.2,57.3,51.9,46.0,99,91,71,30.01,29.93,33,13,38,0.00
2013-10-14,70.5,53.8,39.4,58.2,49.4,39.1,99,87,45,29.97,29.81,19,7,20,0.00
2013-10-15,69.8,59.1,50.5,61.7,56.9,50.3,99,93,71,29.82,29.74,25,10,28,0.00
2013-10-16,63.9,57.6,50.9,63.1,57.3,50.6,99,99,95,29.74,29.47,17,7,22,0.00
2013-10-17,75.9,63.3,54.3,69.2,61.9,54.1,99,96,78,29.46,29.27,30,14,38,0.00
2013-10-18,71.2,63.6,54.0,63.8,57.0,48.6,99,81,57,29.46,29.16,41,19,47,0.04
2013-10-19,69.8,58.0,46.8,53.7,49.7,46.0,97,75,49,29.53,29.31,30,15,38,0.00
2013-10-20,65.3,56.7,48.6,56.3,46.8,39.5,99,72,43,29.57,29.24,41,17,49,0.00
2013-10-21,70.9,56.3,44.2,51.5,46.4,41.0,95,72,48,29.67,29.55,32,13,36,0.00
2013-10-22,69.8,58.0,48.2,59.5,53.1,43.9,99,85,63,29.55,29.25,39,14,41,0.00
2013-10-23,53.6,48.9,42.8,43.6,39.6,36.8,94,71,56,29.35,29.14,19,9,25,0.00
2013-10-24,55.8,47.9,41.2,40.6,35.3,30.0,87,63,42,29.43,29.17,44,20,64,0.00
2013-10-25,51.8,44.2,37.0,39.4,33.7,30.5,94,68,48,29.71,29.44,39,16,41,0.00
2013-10-26,57.7,46.4,35.4,42.4,36.0,32.4,98,70,40,29.71,29.43,60,22,60,0.00
2013-10-27,58.1,49.8,43.7,45.8,40.0,34.8,99,70,49,29.61,29.37,38,19,47,0.02
2013-10-28,61.2,47.5,38.5,42.4,36.8,28.6,92,68,49,29.91,29.61,58,20,58,0.00
2013-10-29,55.6,42.4,33.1,39.5,32.9,26.6,95,70,41,30.00,29.91,22,10,27,0.00
2013-10-30,55.0,44.0,37.6,48.3,41.9,37.3,99,93,72,29.93,29.74,16,6,30,0.05
2013-10-31,64.0,52.4,39.0,63.8,52.1,38.8,99,99,99,29.79,29.36,41,13,50,0.02
2013-11-1,71.8,66.0,60.6,71.3,64.9,60.4,99,96,80,29.34,29.00,82,33,88,0.08
2013-11-2,71.6,59.7,52.0,60.2,52.4,48.1,99,80,48,29.27,29.13,27,9,27,0.00
2013-11-3,53.1,42.9,33.1,52.8,36.3,20.8,99,80,49,29.97,29.26,28,15,38,0.06
2013-11-4,46.2,36.5,28.9,29.5,24.6,21.4,88,63,40,30.26,29.97,32,12,35,0.00
2013-11-5,54.9,41.3,29.5,40.5,33.4,25.9,92,75,49,30.27,30.08,24,9,27,0.00
2013-11-6,64.2,53.1,43.3,54.8,47.8,39.4,99,83,59,30.07,29.59,39,18,44,0.00
2013-11-7,67.3,55.7,42.4,65.6,54.8,37.6,99,97,78,29.59,29.22,44,19,68,0.22
2013-11-8,49.5,41.6,35.4,38.9,32.4,26.3,89,70,55,29.64,29.36,52,22,71,0.01
2013-11-9,47.1,40.7,32.9,33.5,28.9,25.9,81,63,46,29.76,29.59,35,18,42,0.00
2013-11-10,59.5,48.2,43.2,48.6,41.9,34.1,99,79,59,29.59,29.27,46,18,58,0.04
2013-11-11,54.7,46.4,40.1,37.1,33.0,30.7,78,61,42,29.65,29.39,44,24,50,0.00
2013-11-12,38.7,30.2,25.0,20.6,19.7,18.7,78,66,48,29.83,29.75,28,18,28,0.00
2013-11-13,39.6,33.4,30.4,20.5,17.6,14.7,64,52,43,29.80,29.73,25,20,30,0.00
2013-11-14,53.1,41.7,30.2,31.1,25.7,20.0,69,54,40,29.72,29.59,42,20,44,0.00
2013-11-15,64.2,50.2,39.4,39.4,29.1,21.5,74,45,28,29.75,29.65,35,17,35,0.00
2013-11-16,67.5,50.1,43.2,40.6,36.0,32.8,88,61,30,29.87,29.74,22,9,27,0.00
2013-11-17,58.3,49.5,38.7,57.8,48.6,38.4,99,97,88,29.87,29.40,25,8,28,0.04
2013-11-18,68.9,61.6,50.2,64.7,53.9,38.1,99,78,53,29.39,29.07,47,23,66,0.13
2013-11-19,50.0,41.2,31.8,37.9,26.8,20.3,67,56,44,29.83,29.19,55,26,58,0.00
2013-11-20,46.2,35.2,28.8,20.0,18.4,17.0,66,51,33,30.18,29.83,33,14,41,0.00
2013-11-21,52.2,38.9,26.6,34.7,24.9,17.6,77,58,37,30.20,29.94,28,11,32,0.00
2013-11-22,48.0,45.4,41.9,47.8,44.4,35.9,99,96,79,29.93,29.36,22,9,24,0.22
2013-11-23,49.5,42.1,30.7,49.2,31.9,19.7,99,69,41,29.44,29.32,47,24,66,0.01
2013-11-24,30.7,25.1,20.7,20.6,7.6,-0.8,77,48,29,29.73,29.33,71,38,77,0.00
2013-11-25,36.1,26.6,17.1,22.1,6.5,-1.9,66,43,23,29.92,29.74,39,22,47,0.00
2013-11-26,43.7,37.8,32.0,43.4,28.3,21.2,99,69,53,29.89,29.60,35,15,41,0.08
2013-11-27,63.1,52.8,38.1,62.9,52.6,37.9,99,99,99,29.58,28.75,64,26,79,0.85
2013-11-28,37.9,32.5,25.7,37.7,21.6,10.8,99,65,40,29.99,28.98,64,29,76,0.00
2013-11-29,37.0,28.6,21.9,21.1,15.5,8.7,77,58,39,30.30,29.98,35,14,35,0.00
2013-11-30,38.3,28.0,17.4,29.2,19.5,11.5,83,70,56,30.35,30.00,19,11,28,0.00
2013-12-1,43.2,38.5,33.8,42.9,37.6,29.5,99,97,84,29.98,29.56,28,9,32,0.13
2013-12-2,40.8,38.2,36.5,40.6,37.9,36.2,99,99,99,29.55,29.47,17,8,19,0.00
2013-12-3,52.3,40.8,35.4,41.7,37.8,35.2,99,90,65,29.49,29.39,22,11,27,0.00
2013-12-4,46.0,38.9,33.3,36.4,34.1,31.5,99,84,60,29.74,29.49,28,12,36,0.00
2013-12-5,55.9,46.1,36.1,55.7,45.7,35.6,99,98,95,29.76,29.46,24,8,30,0.00
2013-12-6,57.2,50.0,34.5,56.9,48.6,34.3,99,95,69,29.69,29.40,27,13,36,0.22
2013-12-7,43.9,35.3,30.2,37.7,30.5,23.5,99,84,63,29.99,29.63,36,14,41,0.02
2013-12-8,32.2,29.4,25.5,24.2,20.1,17.9,78,68,60,30.15,29.99,20,10,24,0.00
2013-12-9,42.4,34.5,25.7,42.2,33.7,18.5,99,97,63,30.05,29.42,46,16,47,0.32
2013-12-10,36.9,32.6,26.2,36.1,31.4,19.6,99,95,73,29.54,29.33,55,17,61,0.04
2013-12-11,33.1,27.1,23.5,24.6,22.7,20.7,93,83,69,29.76,29.54,46,25,50,0.00
2013-12-12,29.1,23.1,17.6,22.9,11.3,4.7,92,62,38,29.83,29.62,41,18,46,0.00
2013-12-13,30.7,22.8,15.4,22.0,14.3,5.5,89,70,54,29.95,29.54,44,24,57,0.00
2013-12-14,29.7,17.0,9.9,29.4,9.8,-2.8,99,74,51,30.17,29.70,35,18,52,0.00
2013-12-15,35.6,29.0,21.9,35.4,28.8,21.7,99,99,97,29.68,28.96,63,14,69,0.31
2013-12-16,30.9,26.0,19.6,27.2,17.8,10.1,99,73,47,29.75,29.28,46,16,58,0.00
2013-12-17,21.4,16.1,8.1,21.2,12.3,3.1,99,85,63,29.84,29.48,36,13,38,0.00
2013-12-18,38.8,27.1,16.3,27.8,23.5,16.1,99,87,61,29.63,29.41,35,18,38,0.01
2013-12-19,46.4,35.9,26.1,33.3,29.0,25.1,96,77,58,29.66,29.50,60,21,60,0.00
2013-12-20,57.9,45.7,37.2,45.9,38.7,32.1,86,77,60,29.67,29.44,38,14,39,0.00
2013-12-21,61.5,51.9,45.0,56.0,50.1,40.4,99,94,79,29.50,29.41,32,17,36,0.00
2013-12-22,56.7,42.7,34.0,56.4,42.5,33.7,99,99,99,29.58,29.34,30,12,46,0.00
2013-12-23,38.1,33.4,31.6,37.9,33.2,31.4,99,99,99,29.64,29.52,17,8,25,0.24
2013-12-24,39.4,33.0,27.0,37.7,26.1,18.5,99,76,55,29.76,29.60,28,14,38,0.01
2013-12-25,27.5,20.6,14.4,18.3,8.3,3.6,77,59,43,30.11,29.75,42,16,44,0.00
2013-12-26,34.5,27.3,19.0,34.3,25.4,7.5,99,93,59,30.07,29.64,24,11,32,0.01
2013-12-27,34.2,29.0,23.9,26.4,23.9,22.3,99,82,64,29.83,29.74,35,19,39,0.00
2013-12-28,49.1,36.8,27.0,33.3,29.6,25.2,96,76,54,29.77,29.54,41,17,50,0.00
2013-12-29,42.4,37.8,33.8,40.2,34.7,30.2,99,89,77,29.58,28.94,39,12,44,0.69
2013-12-30,43.0,32.6,18.1,38.6,26.0,11.6,99,79,51,29.71,29.05,46,22,57,0.00
2013-12-31,27.5,19.2,12.6,17.7,7.4,-3.1,82,60,43,29.73,29.57,30,16,36,0.00
2014-1-1,28.9,22.2,18.0,12.3,10.1,7.5,67,59,46,29.93,29.73,33,16,41,0.00
2014-1-2,21.2,11.5,-0.6,17.9,10.8,-0.7,99,97,65,29.91,29.40,54,22,54,0.00